TimeMST,TemperatureF,Dew PointF,Humidity,Sea Level PressureIn,VisibilityMPH,Wind Direction,Wind SpeedMPH,Gust SpeedMPH,PrecipitationIn,Events,Conditions,WindDirDegrees,DateUTC
12:35 AM,24.8,19.4,80,30.32,10.0,Calm,Calm,-,N/A,,Clear,0,2012-12-04 07:35:00
12:55 AM,24.8,19.4,80,30.33,10.0,Calm,Calm,-,N/A,,Clear,0,2012-12-04 07:55:00
1:15 AM,23.0,19.4,86,30.33,10.0,East,4.6,-,N/A,,Clear,80,2012-12-04 08:15:00
1:55 AM,23.0,19.4,86,30.34,10.0,Calm,Calm,-,N/A,,Clear,0,2012-12-04 08:55:00
2:15 AM,21.2,17.6,86,30.34,10.0,SSE,3.5,-,N/A,,Clear,150,2012-12-04 09:15:00
2:35 AM,21.2,17.6,86,30.35,10.0,SSE,3.5,-,N/A,,Clear,160,2012-12-04 09:35:00
2:55 AM,21.2,17.6,86,30.36,10.0,SE,3.5,-,N/A,,Clear,140,2012-12-04 09:55:00
3:15 AM,19.4,17.6,93,30.37,10.0,Calm,Calm,-,N/A,,Clear,0,2012-12-04 10:15:00
3:35 AM,19.4,17.6,93,30.37,10.0,SSE,3.5,-,N/A,,Clear,160,2012-12-04 10:35:00
3:55 AM,19.4,17.6,93,30.38,10.0,Calm,Calm,-,N/A,,Clear,0,2012-12-04 10:55:00
4:15 AM,19.4,17.6,93,30.37,10.0,East,5.8,-,N/A,,Clear,90,2012-12-04 11:15:00
4:35 AM,19.4,17.6,93,30.38,10.0,East,4.6,-,N/A,,Clear,100,2012-12-04 11:35:00
5:15 AM,17.6,17.6,100,30.39,10.0,Calm,Calm,-,N/A,,Clear,0,2012-12-04 12:15:00
5:35 AM,17.6,15.8,93,30.40,10.0,Calm,Calm,-,N/A,,Clear,0,2012-12-04 12:35:00
5:55 AM,17.6,15.8,93,30.40,10.0,Calm,Calm,-,N/A,,Clear,0,2012-12-04 12:55:00
6:15 AM,17.6,15.8,93,30.40,10.0,Calm,Calm,-,N/A,,Clear,0,2012-12-04 13:15:00
6:35 AM,17.6,15.8,93,30.42,10.0,SSE,3.5,-,N/A,,Clear,150,2012-12-04 13:35:00
6:50 AM,17.6,15.8,93,30.43,10.0,Calm,Calm,-,N/A,,Partly Cloudy,0,2012-12-04 13:50:00
7:50 AM,17.6,15.8,93,30.45,10.0,Calm,Calm,-,N/A,,Scattered Clouds,0,2012-12-04 14:50:00
8:50 AM,26.6,21.2,80,30.47,10.0,Calm,Calm,-,N/A,,Mostly Cloudy,0,2012-12-04 15:50:00
9:50 AM,28.4,24.8,86,30.46,10.0,Calm,Calm,-,N/A,,Mostly Cloudy,0,2012-12-04 16:50:00
10:50 AM,30.2,21.2,69,30.44,10.0,WSW,3.5,-,N/A,,Scattered Clouds,240,2012-12-04 17:50:00
11:50 AM,35.6,19.4,52,30.41,10.0,Calm,Calm,-,N/A,,Scattered Clouds,0,2012-12-04 18:50:00
12:50 PM,41.0,19.4,42,30.37,10.0,NE,5.8,-,N/A,,Mostly Cloudy,50,2012-12-04 19:50:00
1:50 PM,42.8,15.8,34,30.36,10.0,Variable,3.5,-,N/A,,Overcast,0,2012-12-04 20:50:00
2:50 PM,44.6,15.8,31,30.34,10.0,Calm,Calm,-,N/A,,Overcast,0,2012-12-04 21:50:00
3:51 PM,44.6,17.6,34,30.34,10.0,NE,3.5,-,N/A,,Mostly Cloudy,50,2012-12-04 22:51:00
4:50 PM,41.0,17.6,39,30.36,10.0,SSE,4.6,-,N/A,,Mostly Cloudy,160,2012-12-04 23:50:00
5:50 PM,37.4,19.4,48,30.36,10.0,Calm,Calm,-,N/A,,Scattered Clouds,0,2012-12-05 00:50:00
6:57 PM,33.8,17.6,52,30.36,10.0,Calm,Calm,-,N/A,,Partly Cloudy,0,2012-12-05 01:57:00
7:56 PM,32.0,21.2,64,30.36,10.0,ESE,4.6,-,N/A,,Partly Cloudy,110,2012-12-05 02:56:00
8:58 PM,30.2,21.2,69,30.38,10.0,SE,4.6,-,N/A,,Partly Cloudy,130,2012-12-05 03:58:00
9:53 PM,28.4,19.4,69,30.39,10.0,East,3.5,-,N/A,,Partly Cloudy,80,2012-12-05 04:53:00
10:51 PM,28.4,19.4,69,30.37,10.0,East,3.5,-,N/A,,Partly Cloudy,80,2012-12-05 05:51:00
11:15 PM,28.4,19.4,69,30.36,10.0,Calm,Calm,-,N/A,,Clear,0,2012-12-05 06:15:00
11:35 PM,26.6,19.4,74,30.37,10.0,WSW,3.5,-,N/A,,Clear,250,2012-12-05 06:35:00
11:55 PM,26.6,19.4,74,30.37,10.0,Calm,Calm,-,N/A,,Clear,0,2012-12-05 06:55:00